Previsão horária em Almeirim

Hoje, 17 Janeiro, Domingo

Tempo Temperatura Precipitação Vento Pressão Humidade
00:00 +5°C° 0 mm 1 m/s 771 mmHg 82%
01:00 +5°C° 0 mm 1 m/s 770 mmHg 81%
02:00 +5°C° 0 mm 1 m/s 770 mmHg 81%
03:00 +5°C° 0 mm 1 m/s 770 mmHg 81%
04:00 +4°C° 0 mm 1 m/s 770 mmHg 80%
05:00 +4°C° 0 mm 1 m/s 770 mmHg 83%
06:00 +5°C° 0 mm 1 m/s 770 mmHg 81%
07:00 +5°C° 0 mm 1 m/s 770 mmHg 78%
08:00 +6°C° 0 mm 1 m/s 770 mmHg 76%
09:00 +8°C° 0 mm 2 m/s 770 mmHg 68%
10:00 +10°C° 0 mm 2 m/s 771 mmHg 61%
11:00 +14°C° 0 mm 2 m/s 771 mmHg 54%
12:00 +15°C° 0 mm 1 m/s 770 mmHg 52%
13:00 +16°C° 0 mm 1 m/s 769 mmHg 50%
14:00 +16°C° 0 mm 1 m/s 769 mmHg 48%
15:00 +14°C° 0 mm 1 m/s 769 mmHg 56%
16:00 +12°C° 0 mm 1 m/s 769 mmHg 65%
17:00 +10°C° 0 mm 1 m/s 769 mmHg 73%
18:00 +9°C° 0 mm 1 m/s 769 mmHg 74%
19:00 +8°C° 0 mm 1 m/s 769 mmHg 75%
20:00 +8°C° 0 mm 1 m/s 769 mmHg 76%
21:00 +7°C° 0 mm 1 m/s 769 mmHg 76%
22:00 +7°C° 0 mm 1 m/s 769 mmHg 76%
23:00 +7°C° 0 mm 1 m/s 769 mmHg 76%

Amanhã, 18 Janeiro, Segunda-feira

Tempo Temperatura Precipitação Vento Pressão Humidade
00:00 +6°C° 0 mm 1 m/s 769 mmHg 76%
01:00 +6°C° 0 mm 1 m/s 768 mmHg 77%
02:00 +6°C° 0 mm 1 m/s 768 mmHg 77%
03:00 +5°C° 0 mm 1 m/s 768 mmHg 78%
04:00 +4°C° 0 mm 2 m/s 768 mmHg 78%
05:00 +4°C° 0 mm 2 m/s 768 mmHg 78%
06:00 +4°C° 0 mm 2 m/s 768 mmHg 76%
07:00 +5°C° 0 mm 2 m/s 768 mmHg 75%
08:00 +5°C° 0 mm 2 m/s 768 mmHg 73%
09:00 +8°C° 0 mm 2 m/s 768 mmHg 66%
10:00 +10°C° 0 mm 2 m/s 769 mmHg 59%
11:00 +13°C° 0 mm 2 m/s 769 mmHg 52%
12:00 +14°C° 0 mm 2 m/s 768 mmHg 51%
13:00 +15°C° 0 mm 2 m/s 767 mmHg 50%
14:00 +16°C° 0 mm 2 m/s 766 mmHg 49%
15:00 +14°C° 0 mm 1 m/s 766 mmHg 58%
16:00 +11°C° 0 mm 1 m/s 767 mmHg 67%
17:00 +9°C° 0 mm 1 m/s 767 mmHg 75%
18:00 +9°C° 0 mm 1 m/s 767 mmHg 78%
19:00 +8°C° 0 mm 1 m/s 767 mmHg 81%
20:00 +7°C° 0 mm 1 m/s 767 mmHg 84%
21:00 +7°C° 0 mm 1 m/s 767 mmHg 86%
22:00 +7°C° 0 mm 1 m/s 767 mmHg 87%
23:00 +5°C° 0 mm 2 m/s 767 mmHg 89%

Depois de amanhã, 19 Janeiro, Terça-feira

Tempo Temperatura Precipitação Vento Pressão Humidade
00:00 +6°C° 0 mm 1 m/s 767 mmHg 90%
01:00 +6°C° 0 mm 1 m/s 767 mmHg 91%
02:00 +5°C° 0 mm 1 m/s 766 mmHg 92%
03:00 +4°C° 0 mm 2 m/s 766 mmHg 93%
04:00 +4°C° 0 mm 2 m/s 766 mmHg 93%
05:00 +4°C° 0 mm 2 m/s 765 mmHg 94%
06:00 +5°C° 0 mm 2 m/s 765 mmHg 93%
07:00 +6°C° 0 mm 2 m/s 766 mmHg 92%
08:00 +6°C° 0 mm 2 m/s 766 mmHg 91%
09:00 +8°C° 0 mm 2 m/s 765 mmHg 87%
10:00 +10°C° 0 mm 3 m/s 765 mmHg 83%
11:00 +11°C° 0 mm 3 m/s 765 mmHg 79%
12:00 +12°C° 0 mm 3 m/s 764 mmHg 77%
13:00 +12°C° 0 mm 4 m/s 763 mmHg 76%
14:00 +13°C° 0 mm 4 m/s 762 mmHg 74%
15:00 +13°C° 0 mm 4 m/s 762 mmHg 77%
16:00 +12°C° 0 mm 4 m/s 762 mmHg 80%
17:00 +11°C° 0 mm 4 m/s 761 mmHg 83%
18:00 +11°C° 0 mm 4 m/s 761 mmHg 83%
19:00 +10°C° 0 mm 5 m/s 760 mmHg 83%
20:00 +10°C° 0 mm 5 m/s 760 mmHg 84%
21:00 +10°C° 0.1 mm 6 m/s 759 mmHg 84%
22:00 +11°C° 0.1 mm 6 m/s 758 mmHg 85%
23:00 +11°C° 0.1 mm 7 m/s 758 mmHg 85%

20 Janeiro, Quarta-feira

Tempo Temperatura Precipitação Vento Pressão Humidade
00:00 +11°C° 1.6 mm 7 m/s 757 mmHg 88%
01:00 +11°C° 1.6 mm 7 m/s 756 mmHg 90%
02:00 +11°C° 1.6 mm 8 m/s 755 mmHg 93%
03:00 +11°C° 4.4 mm 7 m/s 754 mmHg 93%
04:00 +13°C° 4.4 mm 6 m/s 753 mmHg 94%
05:00 +13°C° 4.4 mm 5 m/s 752 mmHg 94%
06:00 +13°C° 0.6 mm 4 m/s 753 mmHg 94%
07:00 +12°C° 0.6 mm 4 m/s 753 mmHg 94%
08:00 +12°C° 0.6 mm 3 m/s 753 mmHg 93%
09:00 +13°C° 0.2 mm 5 m/s 753 mmHg 87%
10:00 +14°C° 0.2 mm 6 m/s 753 mmHg 82%
11:00 +15°C° 0.2 mm 7 m/s 754 mmHg 76%
12:00 +15°C° 0.5 mm 7 m/s 754 mmHg 78%
13:00 +13°C° 0.5 mm 8 m/s 754 mmHg 79%
14:00 +13°C° 0.5 mm 8 m/s 754 mmHg 81%
15:00 +14°C° 0.5 mm 7 m/s 754 mmHg 84%
16:00 +13°C° 0.5 mm 6 m/s 754 mmHg 87%
17:00 +12°C° 0.5 mm 5 m/s 755 mmHg 89%
18:00 +12°C° 0.2 mm 5 m/s 755 mmHg 90%
19:00 +12°C° 0.2 mm 5 m/s 756 mmHg 91%
20:00 +12°C° 0.2 mm 4 m/s 757 mmHg 92%
21:00 +12°C° 0.1 mm 4 m/s 757 mmHg 93%
22:00 +12°C° 0.1 mm 4 m/s 758 mmHg 93%
23:00 +12°C° 0.1 mm 4 m/s 758 mmHg 93%

21 Janeiro, Quinta-feira

Tempo Temperatura Precipitação Vento Pressão Humidade
00:00 +12°C° 0.1 mm 4 m/s 758 mmHg 94%
01:00 +11°C° 0.1 mm 4 m/s 759 mmHg 94%
02:00 +11°C° 0.1 mm 3 m/s 759 mmHg 95%
03:00 +11°C° 0.1 mm 3 m/s 759 mmHg 95%
04:00 +11°C° 0.1 mm 3 m/s 759 mmHg 95%
05:00 +11°C° 0.1 mm 3 m/s 759 mmHg 95%
06:00 +11°C° 0 mm 3 m/s 759 mmHg 95%
07:00 +12°C° 0 mm 3 m/s 760 mmHg 96%
08:00 +12°C° 0 mm 4 m/s 760 mmHg 96%
09:00 +13°C° 0.1 mm 5 m/s 760 mmHg 91%
10:00 +14°C° 0.1 mm 6 m/s 759 mmHg 87%
11:00 +16°C° 0.1 mm 7 m/s 759 mmHg 82%
12:00 +15°C° 0.7 mm 8 m/s 758 mmHg 85%
13:00 +13°C° 0.7 mm 8 m/s 758 mmHg 88%
14:00 +13°C° 0.7 mm 8 m/s 757 mmHg 90%
15:00 +13°C° 1 mm 8 m/s 757 mmHg 92%
16:00 +15°C° 1 mm 8 m/s 757 mmHg 93%
17:00 +15°C° 1 mm 7 m/s 757 mmHg 94%
18:00 +15°C° 0.7 mm 7 m/s 757 mmHg 94%
19:00 +15°C° 0.7 mm 6 m/s 757 mmHg 94%
20:00 +15°C° 0.7 mm 5 m/s 757 mmHg 94%
21:00 +14°C° 0.2 mm 5 m/s 757 mmHg 94%
22:00 +14°C° 0.2 mm 5 m/s 757 mmHg 94%
23:00 +14°C° 0.2 mm 5 m/s 757 mmHg 94%

22 Janeiro, Sexta-feira

Tempo Temperatura Precipitação Vento Pressão Humidade
00:00 +14°C° 0.3 mm 5 m/s 757 mmHg 94%
01:00 +13°C° 0.3 mm 4 m/s 758 mmHg 94%
02:00 +13°C° 0.3 mm 4 m/s 758 mmHg 95%
03:00 +13°C° 0.2 mm 4 m/s 758 mmHg 94%
04:00 +12°C° 0.2 mm 4 m/s 758 mmHg 94%
05:00 +12°C° 0.2 mm 4 m/s 758 mmHg 94%
06:00 +12°C° 0 mm 4 m/s 759 mmHg 92%
07:00 +12°C° 0 mm 4 m/s 759 mmHg 90%
08:00 +10°C° 0 mm 5 m/s 760 mmHg 89%
09:00 +11°C° 0.3 mm 6 m/s 760 mmHg 84%
10:00 +12°C° 0.3 mm 7 m/s 761 mmHg 78%
11:00 +13°C° 0.3 mm 9 m/s 761 mmHg 73%
12:00 +13°C° 0.2 mm 8 m/s 761 mmHg 71%
13:00 +13°C° 0.2 mm 8 m/s 762 mmHg 69%
14:00 +14°C° 0.2 mm 7 m/s 762 mmHg 67%
15:00 +11°C° 0 mm 6 m/s 763 mmHg 71%
16:00 +11°C° 0 mm 4 m/s 763 mmHg 75%
17:00 +10°C° 0 mm 3 m/s 764 mmHg 79%
18:00 +9°C° 0 mm 3 m/s 765 mmHg 82%
19:00 +9°C° 0 mm 2 m/s 765 mmHg 84%
20:00 +8°C° 0 mm 2 m/s 766 mmHg 87%
21:00 +8°C° 0 mm 2 m/s 766 mmHg 88%
22:00 +9°C° 0 mm 1 m/s 766 mmHg 89%
23:00 +8°C° 0 mm 1 m/s 767 mmHg 90%
Mostrar mais

Necessitamos do seu Consentimento

A Meteoprog e os seus Fornecedores de Serviços podem armazenar e aceder a dados pessoais como cookies, identificadores do dispositivo ou outras tecnologias semelhantes existentes no seu dispositivo e processar estes dados para personalizar conteúdos e anúncios, assim como funcionalidades nas redes sociais e análise de tráfego.

  • Armazenar e/ou aceder a informações no seu dispositivo

    Os cookies, identificadores do dispositivo ou outras informações podem ser armazenados ou acedidos no seu dispositivo, para os fins acima indicados.

  • Anúncios e conteúdos personalizados, medição de anúncios e conteúdos, dados sobre o público-alvo e desenvolvimento de produtos

    Os anúncios e os conteúdos podem ser personalizados com base num perfil. Podem ser adicionados dados adicionais para uma maior personalização dos anúncios e dos conteúdos. A eficácia dos anúncios e dos conteúdos pode ser medida. Podem ser obtidas informações sobre o público que visualizou os anúncios e os conteúdos. Estes dados podem ser usados para desenvolver ou melhorar sistemas, softwares ou a experiência do utilizador.

Ao clicar em "Eu concordo”, permitirá o uso de cookies, identificadores do dispositivo e web beacons mencionados ou outras tecnologias semelhantes. As configurações do navegador do seu dispositivo podem ser alteradas.

Para certos fins, podem ser invocados interesses legítimos ao invés de consentimento. Pode ler mais informação sobre este assunto na nossa Política de Privacidade e Cookies.